Weather History for Abilene Dyess, TX

Change the Weather History Date:

Monday, March 4, 2013

  Actual Average Record
Temperature  
Mean Temperature 70 °F -  
Max Temperature 86 °F 61 °F 86 °F (2013)
Min Temperature 49 °F 40 °F 20 °F (2014)
Cooling Degree Days 6    
Growing Degree Days 20 (Base 50)    
Moisture  
Dew Point 21 °F    
Average Humidity 17    
Maximum Humidity 60    
Minimum Humidity 8    
Precipitation  
Precipitation 0.01 in - - ()
Sea Level Pressure  
Sea Level Pressure 29.72 in    
Wind  
Wind Speed 18 mph (WSW)    
Max Wind Speed 36 mph    
Max Gust Speed 51 mph    
Visibility 10 miles    
Events      
Averages and records for this station are not official NWS values.
T = Trace of Precipitation, MM = Missing Value Source: NWS Daily Summary

Daily Weather History Graph

Daily Weather History Graph

Search for Another Location

Airport:

Trip Planner

Search our weather history database for the weather conditions in past years. The results will help you decide how hot, cold, wet, or windy it might be!

Date:

Astronomy

Mar. 04, 2013 Rise Set
Actual Time 7:03 AM CST 6:39 PM CST
Civil Twilight 6:38 AM CST 7:04 PM CST
Nautical Twilight 6:10 AM CST 7:32 PM CST
Astronomical Twilight 5:41 AM CST 8:01 PM CST
Moon 1:00 AM CST (3/4) 11:36 AM CST (3/4)
Length of Visible Light 12h 25m
Length of Day
11h 36m
Waning Gibbous, 52% of the Moon is Illuminated
Mar 4
Waning Gibbous
Mar 4
Last Quarter
Mar 11
New
Mar 19
First Quarter
Mar 27
Full

Hourly Weather History & Observations

Time (CST) Temp. Dew Point Humidity Pressure Visibility Wind Dir Wind Speed Gust Speed Precip Events Conditions
12:58 AM 64.6 °F 19.2 °F 18% 29.70 in 10.0 mi SSW 26.5 mph 34.5 mph N/A   Clear
1:58 AM 63.3 °F 20.7 °F 19% 29.71 in 10.0 mi SSW 23.0 mph - N/A   Clear
2:58 AM 62.6 °F 21.2 °F 20% 29.70 in 10.0 mi SW 20.7 mph 29.9 mph N/A   Scattered Clouds
3:13 AM 62.6 °F 21.2 °F 20% 29.71 in 10.0 mi WSW 17.3 mph 26.5 mph N/A   Mostly Cloudy
3:58 AM 62.8 °F 21.6 °F 21% 29.71 in 10.0 mi SW 18.4 mph - N/A   Scattered Clouds
4:58 AM 61.0 °F 21.2 °F 22% 29.72 in 10.0 mi SW 13.8 mph - N/A   Clear
5:55 AM 58.1 °F 19.6 °F 22% 29.68 in 10.0 mi SSW 11.5 mph - N/A   Clear
6:58 AM 55.6 °F 19.6 °F 25% 29.74 in 10.0 mi SSW 5.8 mph - N/A   Clear
7:58 AM 60.4 °F 21.7 °F 23% 29.75 in 10.0 mi SSW 9.2 mph - N/A   Clear
8:58 AM 68.7 °F 20.3 °F 16% 29.76 in 10.0 mi SW 13.8 mph - N/A   Partly Cloudy
9:58 AM 73.4 °F 21.9 °F 14% 29.77 in 10.0 mi WSW 13.8 mph - N/A   Partly Cloudy
10:58 AM 75.6 °F 22.3 °F 14% 29.77 in 10.0 mi WSW 13.8 mph - N/A   Scattered Clouds
11:58 AM 79.2 °F 23.9 °F 13% 29.76 in 10.0 mi West 16.1 mph - N/A   Scattered Clouds
12:58 PM 82.6 °F 23.5 °F 11% 29.73 in 10.0 mi West 12.7 mph 19.6 mph N/A   Partly Cloudy
1:46 PM 84.2 °F 23.0 °F 11% 29.69 in 10.0 mi SW 13.8 mph 28.8 mph N/A   Mostly Cloudy
1:58 PM 83.8 °F 22.1 °F 10% 29.68 in 10.0 mi West 10.4 mph 20.7 mph N/A   Partly Cloudy
2:58 PM 84.4 °F 25.0 °F 11% 29.66 in 10.0 mi WSW 12.7 mph - N/A   Partly Cloudy
3:58 PM 84.7 °F 23.0 °F 10% 29.65 in 10.0 mi West 8.1 mph - N/A   Clear
4:37 PM 86.0 °F 19.4 °F 9% 29.63 in 10.0 mi WSW 16.1 mph 29.9 mph N/A   Clear
4:42 PM 86.0 °F 19.4 °F 9% 29.63 in 10.0 mi SW 16.1 mph 29.9 mph N/A   Clear
4:58 PM 85.3 °F 18.1 °F 8% 29.63 in 10.0 mi WSW 16.1 mph 19.6 mph N/A   Clear
5:58 PM 82.8 °F 20.5 °F 10% 29.64 in 10.0 mi SW 11.5 mph - N/A   Clear
6:58 PM 76.6 °F 17.4 °F 11% 29.65 in 10.0 mi SW 10.4 mph - N/A   Clear
7:58 PM 73.8 °F 14.4 °F 10% 29.66 in 10.0 mi SW 12.7 mph - N/A   Clear
8:58 PM 71.4 °F 12.4 °F 10% 29.68 in 10.0 mi SW 16.1 mph - N/A   Clear
9:36 PM 75.2 °F 15.8 °F 11% 29.71 in 10.0 mi West 29.9 mph 39.1 mph N/A   Scattered Clouds
9:44 PM 77.0 °F 14.0 °F 9% 29.73 in 10.0 mi WNW 20.7 mph 46.0 mph N/A   Partly Cloudy
9:45 PM 77.0 °F 14.0 °F 9% 29.73 in 10.0 mi NW 20.7 mph 46.0 mph N/A   Partly Cloudy
9:47 PM 77.0 °F 14.0 °F 9% 29.73 in 10.0 mi NW 20.7 mph 46.0 mph N/A   Partly Cloudy
9:58 PM 73.4 °F 19.4 °F 13% 29.72 in 10.0 mi WNW 9.2 mph - N/A   Clear
10:26 PM 69.8 °F 37.4 °F 31% 29.80 in 10.0 mi North 35.7 mph 40.3 mph N/A   Partly Cloudy
10:58 PM 61.5 °F 41.2 °F 47% 29.86 in 10.0 mi North 35.7 mph 50.6 mph N/A   Clear
11:58 PM 49.8 °F 36.5 °F 60% 30.01 in 10.0 mi NNE 28.8 mph 34.5 mph 0.01 in   Partly Cloudy